Location: Solstice Park, West Seattle
(47.5363°N, 122.3905°W)
Time: 09:29:20
(UTC-07:00)

ISS - Pass Details

Date: 18 May 2021
Orbit: 417 x 422 km, 51.6° (Epoch: 18 June)

Event Time Altitude Azimuth Distance (km) Brightness Sun altitude
Rises 23:58:23 0° 280° (W) 2,367 0.4 -21.1°
Reaches altitude 10° 00:00:34 10° 288° (WNW) 1,504 -0.5 -21.3°
Maximum altitude 00:03:46 39° 359° (N) 649 -2.3 -21.4°
Enters shadow 00:06:52 11° 70° (ENE) 1,469 -1.0 -21.5°
